Location: Mentone
(34.5413°N, 85.5351°W)
Time: 22:29:27
(UTC-05:00)

ATLAS 5 CENTAUR R/B - Visible Passes

Search period start: 29 June 2015 00:00
Search period end: 09 July 2015 00:00
Orbit: 692 x 970 km, 63.4° (Epoch: 27 June)

Date Brightness Start Highest point End Pass type
(mag) Time Alt. Az. Time Alt. Az. Time Alt. Az.
29 Jun 5.1 01:11:34 10° NNE 01:14:00 13° NE 01:16:45 10° ENE visible
29 Jun 2.7 02:53:50 10° NNW 02:59:54 67° ENE 03:06:15 10° SE visible
29 Jun 3.7 04:40:05 10° WNW 04:44:20 18° WSW 04:48:21 10° SSW visible
30 Jun 5.1 00:53:03 10° NNE 00:55:10 12° NE 00:57:36 10° ENE visible
30 Jun 2.8 02:35:05 10° NNW 02:41:08 63° ENE 02:47:12 11° SE visible
30 Jun 3.6 04:21:10 10° WNW 04:25:35 20° WSW 04:28:28 14° SW visible
01 Jul 5.1 00:34:35 10° NNE 00:36:19 11° NE 00:38:23 10° ENE visible
01 Jul 2.8 02:16:21 10° NNW 02:22:21 60° NE 02:25:59 26° SE visible
01 Jul 3.6 04:02:15 10° WNW 04:06:51 21° WSW 04:07:22 21° WSW visible
02 Jul 5.1 00:16:14 10° NNE 00:17:29 11° NE 00:19:04 10° NE visible
02 Jul 2.9 01:57:36 10° NNW 02:03:35 56° NE 02:05:49 38° ESE visible
02 Jul 3.6 03:43:21 10° WNW 03:47:16 22° W 03:47:16 22° W visible
02 Jul 5.1 23:58:11 10° NNE 23:58:39 10° NE 23:59:27 10° NE visible
03 Jul 3.0 01:38:52 10° NNW 01:44:48 53° NE 01:46:11 45° E visible
03 Jul 3.7 03:24:27 10° WNW 03:27:39 22° W 03:27:39 22° W visible
04 Jul 3.0 01:20:08 10° NNW 01:26:01 50° NE 01:26:51 47° E visible
04 Jul 3.9 03:05:35 10° WNW 03:08:20 21° W 03:08:20 21° W visible
05 Jul 3.1 01:01:24 10° NNW 01:07:14 47° NE 01:07:44 46° ENE visible
05 Jul 3.9 02:46:43 10° NW 02:49:14 21° WNW 02:49:14 21° WNW visible
06 Jul 3.2 00:42:40 10° NNW 00:48:27 45° NE 00:48:46 44° ENE visible
06 Jul 4.0 02:27:51 10° NW 02:30:17 21° WNW 02:30:17 21° WNW visible
07 Jul 3.2 00:23:57 10° NNW 00:29:40 42° NE 00:29:55 42° ENE visible
07 Jul 4.0 02:08:59 10° NW 02:11:27 21° WNW 02:11:27 21° WNW visible
08 Jul 3.3 00:05:13 10° NNW 00:10:52 40° NE 00:11:10 40° ENE visible
08 Jul 4.0 01:50:09 10° NW 01:52:42 22° WNW 01:52:42 22° WNW visible
08 Jul 3.3 23:46:29 10° NNW 23:52:05 38° NE 23:52:30 38° ENE visible
